This is the latest recevied weather packets stored in our database for station/object M0JUI-1. If no packets are shown the sender has not sent any weather packets the latest 10 day(s).
| Time | Temp. | Humidity | Pressure | Rain* | Wind** | Luminosity | Snow |
|---|---|---|---|---|---|---|---|
| 1787838092 | 17.78° C | 20% | 1009.1 hPa | 0.25 mm | - | 230 W/m² | - |
| 1787837792 | 17.78° C | 20% | 1008.9 hPa | 0.25 mm | - | 139 W/m² | - |
| 1787837493 | 17.78° C | 21% | 1009.2 hPa | 0.51 mm | - | 124 W/m² | - |
| 1787837192 | 17.78° C | 21% | 1009 hPa | 0.51 mm | - | 168 W/m² | - |
| 1787836892 | 17.22° C | 21% | 1009 hPa | 0.51 mm | - | 164 W/m² | - |
| 1787836592 | 17.22° C | 21% | 1009 hPa | 0.76 mm | - | 160 W/m² | - |
| 1787836292 | 17.78° C | 22% | 1009 hPa | 0.76 mm | - | 161 W/m² | - |
| 1787835993 | 17.22° C | 22% | 1009.1 hPa | 1.02 mm | - | 157 W/m² | - |
| 1787835693 | 17.22° C | 22% | 1009 hPa | 1.02 mm | - | 170 W/m² | - |
| 1787835393 | 17.22° C | 22% | 1008.8 hPa | 1.27 mm | - | 155 W/m² | - |
| 1787835093 | 17.22° C | 22% | 1009.1 hPa | 1.27 mm | - | 141 W/m² | - |
| 1787834793 | 17.22° C | 22% | 1008.8 hPa | 1.78 mm | - | 125 W/m² | - |
| 1787834492 | 17.22° C | 22% | 1009 hPa | 2.03 mm | - | 111 W/m² | - |
| 1787834193 | 17.22° C | 22% | 1009.1 hPa | 2.03 mm | - | 96 W/m² | - |
| 1787833892 | 17.22° C | 22% | 1009.3 hPa | 1.78 mm | - | 74 W/m² | - |
| 1787833592 | 17.22° C | 22% | 1009.3 hPa | 2.03 mm | - | 81 W/m² | - |
| 1787833293 | 17.22° C | 22% | 1009.2 hPa | 2.03 mm | - | 81 W/m² | - |
| 1787832993 | 17.22° C | 22% | 1009.4 hPa | 2.03 mm | - | 78 W/m² | - |
| 1787832692 | 17.22° C | 22% | 1009.3 hPa | 2.03 mm | - | 78 W/m² | - |
| 1787832395 | 16.67° C | 22% | 1009.5 hPa | 2.03 mm | - | 46 W/m² | - |
| 1787832092 | 16.67° C | 22% | 1009.6 hPa | 2.03 mm | - | 39 W/m² | - |
| 1787831792 | 16.67° C | 22% | 1009.8 hPa | 2.03 mm | - | 32 W/m² | - |
| 1787831493 | 16.67° C | 22% | 1009.7 hPa | 2.03 mm | - | 27 W/m² | - |
| 1787831192 | 16.67° C | 22% | 1009.9 hPa | 1.52 mm | - | 28 W/m² | - |
| 1787830893 | 16.67° C | 22% | 1009.8 hPa | 1.52 mm | - | 21 W/m² | - |
* Rain latest hour (hover to see other rain measurements)
** Current wind speed in m/s (hover to see current wind gust speed)